Torna al catalogo

COSMOS 2606

AttivoMilitarePO
NORAD 67680·PAYLOAD·🇷🇺 Russia

Lanciato Feb 5, 2026 da Plesetsk Cosmodrome

Loading…

Prossimi Passaggi (prossime 24 ore)

TLE

AggiornatoSource: Space-Track

Epoca: Sep 14, 2026, 09:45 UTC

1 67680U 26023G   26257.40627456  .00003630  00000-0  13907-3 0  9991
2 67680  96.6045 311.0160 0021522 158.1995 202.0167 15.26842215 33607

Traccia COSMOS 2606 in tempo reale con AllMySat

Download on the App Store